Location: B
(0.0000°N, 0.0000°E)
Time: 19:41:10
(UTC+02:00)

Daily predictions for brighter satellites

Satellite Brightness Start Highest point End
(mag) Time Altitude Azimuth Time Altitude Azimuth Time Altitude Azimuth
Ariane H10-3 4.1 19:09:16 10° WSW 19:13:47 79° S 19:49:10 10° E
Ariane H10-3 4.1 19:09:17 10° WSW 19:13:47 79° S 19:49:10 10° E
Ariane H10-3 4.1 19:09:17 10° WSW 19:13:47 79° S 19:49:11 10° E
Ariane H10 4.4 19:09:56 10° WSW 19:14:12 72° SSE 19:40:34 10° E
Ariane H10 4.4 19:09:55 10° WSW 19:14:12 72° SSE 19:40:34 10° E
Ariane H10 4.4 19:09:56 10° WSW 19:14:13 72° SSE 19:40:34 10° E
ARIANE 44L R/B 3.5 20:16:08 10° WSW 20:18:49 39° S 20:27:41 10° ESE
Meteor 2-10 4.4 20:13:50 10° S 20:19:27 57° E 20:25:02 10° NNE
Cosmos 1805 Rocket 3.6 20:15:52 10° N 20:20:17 84° E 20:24:41 10° S
Cosmos 1328 Rocket 4.2 20:16:03 10° SSW 20:20:19 62° W 20:24:33 10° N
Cosmos 2227 Rocket 3.9 20:20:21 10° NE 20:22:45 13° ENE 20:25:09 10° E
Ariane H10+ 2.3 20:20:58 10° NW 20:23:19 31° NNE 20:28:19 10° ENE
Tsikada Rocket 4.4 20:19:44 10° N 20:26:07 72° W 20:32:30 10° S
Sich 1 3.1 20:23:43 10° N 20:28:00 59° E 20:32:16 10° SSE
Cosmos 1300 3.2 20:24:55 10° SSW 20:28:42 64° W 20:32:29 10° N
Atlas Centaur 2 4.4 20:24:17 10° W 20:29:10 27° NNW 20:35:01 10° NNE
Lacrosse 5 3.8 20:28:27 10° NE 20:30:16 12° ENE 20:32:06 10° E
CZ-4 R/B 3.9 20:29:38 10° SSW 20:32:53 24° WSW 20:36:05 10° NW
Cosmos 1151 Rocket 3.0 20:28:40 10° S 20:33:04 85° E 20:37:24 10° N
Cosmos 1891 Rocket 4.4 20:27:47 10° S 20:33:47 71° E 20:39:48 10° N
Cosmos 1726 3.9 20:31:56 10° SSW 20:35:19 36° W 20:38:42 10° NNW
Cosmos 1331 Rocket 4.4 20:30:11 10° SSW 20:35:26 72° WNW 20:40:42 10° N
Ariane H10 4.3 20:33:05 10° WSW 20:35:42 38° S 20:41:23 12° ESE
Ariane H10 3.8 20:15:10 10° W 20:35:52 85° N 20:39:23 13° E
Cosmos 2360 4.2 20:30:29 10° SSW 20:36:11 79° ESE 20:41:53 10° NNE
Cosmos 1484 Rocket 4.1 20:33:59 10° S 20:37:31 41° W 20:41:04 10° NNW
Cosmos 1470 Rocket 4.5 20:35:34 10° NNE 20:39:12 27° E 20:42:50 10° SE
Cosmos 1464 Rocket 4.3 20:35:01 10° S 20:41:14 75° W 20:47:32 10° N
GPS 2-18 Rocket1 3.3 20:38:01 10° WNW 20:42:06 75° SSW 20:45:18 16° ESE
Helios 1B rocket 3.9 20:42:21 10° ENE 20:44:56 16° ESE 20:45:25 16° ESE
Resurs 01 Rocket 3.8 20:50:28 10° ENE 20:50:28 10° ENE 20:50:33 10° ENE
Meteor 1-27 4.2 20:43:32 10° S 20:49:16 86° E 20:54:54 10° N
Ariane H10-3 3.9 20:46:53 10° WSW 20:51:28 71° S 21:12:08 18° E
Ariane H10-3 3.9 20:46:53 10° WSW 20:51:29 71° S 21:12:07 18° E
METEOR-M 4.0 20:53:50 10° SSE 20:59:10 81° ENE 21:04:30 10° N
ISS -1.8 20:58:44 10° WNW 21:01:32 26° SW 21:04:22 10° S
Palapa 6 Rocket 4.3 20:54:34 10° WSW 21:01:41 67° SSE 21:07:33 20° ENE
Cosmos 1140 Rocket 3.4 20:57:12 10° N 21:02:20 74° ENE 21:07:27 10° SSE
BLOCK DM-SL R/B 3.2 20:58:47 10° W 21:03:44 82° N 21:05:45 27° E
FREGAT/IRIS 2.4 21:09:04 38° SSE 21:10:06 76° E 21:13:06 10° N
Cosmos 1634 Rocket 4.3 21:04:48 10° SSE 21:10:39 42° E 21:16:30 10° NNE
HJ-1C 4.5 21:15:20 31° NE 21:15:20 31° NE 21:17:33 10° N
In-Cosmos 22 Rocket 4.1 21:09:24 10° N 21:14:33 53° E 21:18:13 19° SSE
FENGYUN 3A 3.6 21:14:04 16° SSE 21:18:25 61° ENE 21:23:41 10° N
Cosmos 1455 2.3 21:17:22 10° S 21:21:13 73° W 21:25:00 10° N
Tiangong 2 1.7 21:20:19 10° WNW 21:23:24 50° SW 21:23:26 50° SW
Cosmos 2322 Rocket 2.1 21:19:48 10° SSW 21:25:25 88° WNW 21:31:01 10° NNE
ALOS 2.1 21:22:23 20° SSE 21:25:35 85° ENE 21:30:15 10° N
SJ-6B 2.7 21:24:38 36° S 21:26:07 79° WSW 21:29:57 10° NNW
Nadezhda 4 Rocket 4.2 21:22:13 10° NNE 21:28:10 45° E 21:29:06 42° ESE
ARIANE 5 DEB (SYLDA) 3.1 21:29:57 10° W 21:33:32 48° W 21:33:32 48° W
Cosmos 2297 Rocket 2.1 21:29:54 10° N 21:35:28 61° ENE 21:36:05 57° ESE
CZ-3C R/B 2.2 21:32:17 10° W 21:35:11 22° SW 21:35:11 22° SW
Spot 2 Rocket 4.3 21:38:03 37° NE 21:38:03 37° NE 21:41:30 10° N
GPS 2-14 Rocket1 4.3 21:36:56 10° NW 21:39:55 27° N 21:39:55 27° N
Meteor 2-3 Rocket 3.6 21:38:13 10° N 21:43:55 69° E 21:44:11 68° ESE
H-2A R/B 4.2 21:46:21 32° NNW 21:46:21 32° NNW 21:48:30 10° NNW
FengYun 1-2 T 4.3 21:43:44 32° S 21:46:27 79° WSW 21:52:05 10° NNW
Centaur AC-102 4.2 21:42:45 10° W 21:47:37 72° NNW 21:53:33 29° ENE
SL-16 R/B 3.2 21:46:44 10° SSW 21:52:07 45° WNW 21:57:29 10° N
SWIFT 4.1 21:53:40 10° WSW 21:55:45 28° WSW 21:55:45 28° WSW
H-10 deb 3.1 21:51:03 10° W 21:57:28 42° NW 21:57:28 42° NW
Cosmos 2227 Rocket 3.2 22:01:15 10° NW 22:06:31 42° WSW 22:08:06 34° SW
Cosmos 2082 4.4 22:04:17 10° NNW 22:09:38 48° WSW 22:10:15 46° SW
ARIANE 3 DEB 4.1 22:08:02 10° W 22:11:43 67° WNW 22:11:43 67° WNW
Lacrosse 5 3.0 22:08:13 10° NW 22:11:55 40° W 22:11:55 40° W
CZ-3B Rocket 4.0 22:19:42 10° WNW 22:21:46 19° NW 22:21:46 19° NW
CZ-3 Stage 3 4.3 22:15:02 10° NW 22:25:05 23° N 22:25:16 23° N
Resurs 01 Rocket 4.2 22:28:02 18° NW 22:28:02 18° NW 22:29:21 10° NW
USA 229 DEB 4.5 22:25:40 10° SW 22:30:30 44° WSW 22:30:30 44° WSW
Ariane H10 4.3 22:01:53 10° W 22:42:12 76° SSW 22:42:12 76° SSW
